Location: Oroua River
(40.4333°S, 175.4333°E)
Time: 13:46:38
(UTC+00:00)

Cosmos 1455 Rocket - Pass Details

Date: 03 February 2023
Orbit: 603 x 628 km, 82.5° (Epoch: 22 March)

Event Time Altitude Azimuth Distance (km) Brightness Sun altitude
Rises 16:46:10 0° 182° (S) 2,945 6.9 -8.2°
Reaches altitude 10° 16:48:30 10° 175° (S) 2,033 6.2 -7.8°
Maximum altitude 16:52:51 46° 101° (ESE) 854 4.4 -7.0°
Drops below altitude 10° 16:57:09 10° 27° (NNE) 2,013 5.7 -6.3°
Sets 16:59:27 0° 21° (NNE) 2,913 6.4 -5.9°
